Wind_Speed
27 27 28 28 28 28 28 28 28 27 26 25 24 25 24 24 23 22 22 22 22 22 22 23 23 23 23 23 23 22 22 21 21 21 22 23 23 22 22 22 22 21 21 21
28 28 29 29 29 29 29 29 29 28 26 25 26 26 25 25 25 24 24 24 24 24 24 24 24 23 24 24 24 23 23 23 23 22 22 23 23 23 23 22 22 22 21 21
29 29 30 31 29 30 30 29 29 28 27 27 27 26 27 27 27 26 25 26 26 26 26 25 25 25 26 26 25 23 23 24 23 23 23 23 24 23 23 24 23 23 23 23
29 30 31 30 30 31 30 30 30 29 28 28 28 28 28 27 27 28 27 28 27 27 27 26 26 25 26 26 25 25 24 24 24 25 25 25 25 24 25 25 24 24 24 25
29 30 31 30 30 30 30 29 29 29 28 28 29 29 29 29 29 29 29 30 30 30 29 29 28 27 27 27 26 26 26 26 26 26 27 27 26 26 26 26 26 26 26 26
30 31 31 28 29 30 30 30 28 28 28 28 29 30 29 29 30 30 30 30 30 30 30 30 30 29 29 29 28 28 28 28 27 28 28 27 27 27 27 28 27 27 27 27
30 31 31 29 28 29 30 29 28 28 28 28 29 30 29 30 31 31 30 30 30 30 31 31 30 29 30 30 30 29 29 29 28 28 28 28 28 28 28 28 28 27 27 27
28 30 30 29 29 29 29 29 27 27 27 27 28 29 30 30 31 30 30 29 29 30 31 31 30 30 30 30 31 31 30 30 29 29 29 29 29 28 28 28 27 27 27 28
27 28 28 29 29 29 29 28 28 27 27 27 27 28 29 30 30 31 30 30 30 30 31 31 31 31 31 31 31 30 30 30 30 30 30 29 29 28 28 29 29 29 29 29
27 27 27 28 28 28 28 27 26 27 27 27 28 28 28 29 29 29 30 30 30 30 30 29 29 30 31 30 30 30 30 30 30 30 30 30 30 29 30 30 30 30 30 30
26 26 26 27 27 27 27 27 27 27 27 27 27 28 28 29 28 28 29 30 30 30 30 29 28 28 29 28 28 28 29 29 29 29 30 30 30 31 31 30 30 30 30 31
26 26 26 25 26 26 26 25 26 27 27 27 27 27 27 28 27 27 28 28 29 29 30 29 28 29 29 28 28 29 29 29 29 29 29 30 30 30 30 30 30 31 31 30
24 24 25 25 25 25 26 26 26 26 26 27 27 27 27 27 27 27 27 28 29 29 29 29 28 28 28 29 29 29 29 29 29 30 30 30 30 29 29 29 30 31 31 31
24 23 24 25 26 26 26 26 26 26 26 26 27 27 28 28 28 28 28 28 29 29 29 29 29 29 29 29 29 30 30 30 30 30 30 30 30 30 30 30 30 30 29 29
23 24 24 24 25 26 26 26 26 26 26 26 26 27 27 27 27 27 27 27 28 28 29 29 29 29 30 30 30 30 30 30 30 31 31 30 30 29 29 30 29 29 29 29
22 23 23 23 23 24 24 23 24 24 24 25 25 25 26 26 26 25 26 26 27 27 27 27 27 28 29 30 30 30 30 30 30 30 30 30 29 29 28 29 28 28 28 28
21 22 22 22 22 22 23 23 23 24 24 24 24 24 24 24 25 25 25 26 26 26 26 26 26 27 28 28 29 29 29 29 29 30 29 29 29 28 28 28 28 28 28 28
20 21 21 20 21 21 22 22 22 22 22 22 22 22 23 23 23 24 24 25 25 25 26 26 27 27 27 28 28 28 28 29 29 29 28 28 28 28 27 27 27 26 26 27
19 19 19 19 19 20 20 20 20 21 21 21 21 22 22 22 23 24 25 25 26 26 26 26 27 27 26 26 27 27 26 27 28 28 28 27 27 27 27 26 26 26 26 27
18 18 19 19 19 20 20 20 20 20 20 20 21 22 22 22 23 23 24 24 25 26 26 26 26 26 26 26 26 26 26 26 26 26 26 25 25 26 26 26 26 26 26 27
18 19 20 20 20 20 20 20 20 20 20 20 21 21 22 22 23 23 23 24 24 25 25 26 26 26 26 26 26 26 26 25 25 25 25 25 25 25 25 25 26 26 27 27
19 19 19 19 19 20 20 21 21 21 21 22 23 23 24 23 23 23 24 24 24 24 25 25 25 25 26 26 26 25 25 25 25 25 25 25 25 25 25 25 26 26 26 26
17 18 19 19 20 21 21 22 22 22 22 23 23 24 24 23 23 23 23 23 24 24 24 25 24 25 25 26 26 25 25 25 25 25 24 25 25 26 25 25 26 26 26 26
18 19 19 20 20 21 21 22 22 22 22 23 23 23 23 23 23 23 23 22 23 23 23 24 24 24 24 25 25 25 25 25 24 24 24 24 24 24 24 24 24 24 25 25
18 18 18 19 19 20 20 20 20 20 21 21 21 22 22 22 22 21 21 21 21 22 21 21 21 22 23 23 24 24 24 24 24 23 23 24 23 23 23 24 24 24 25 25
18 18 18 18 18 18 18 18 18 18 19 19 19 20 20 20 21 21 20 20 20 21 21 21 20 21 21 22 22 22 22 22 22 23 23 23 23 23 23 24 24 25 25 25
17 17 17 17 17 16 16 16 17 18 18 19 19 19 19 20 20 20 19 19 19 20 20 21 20 20 20 21 21 21 21 21 21 22 22 23 23 24 24 25 25 25 25 25
Wind_Direction
257 257 258 258 259 259 260 263 265 266 265 264 265 264 264 265 264 262 262 263 265 267 268 268 267 267 267 269 271 273 273 272 269 270 269 268 269 268 269 271 271 271 271 271
255 256 257 257 257 259 260 262 263 264 264 263 265 264 262 263 265 263 262 261 265 267 265 268 270 271 272 273 276 273 270 270 270 268 268 269 270 270 270 271 272 270 270 271
256 257 258 258 258 259 259 260 263 264 265 263 263 264 264 264 264 263 261 263 264 264 266 270 271 275 275 274 276 276 273 270 271 269 269 269 270 271 271 271 271 269 271 271
259 258 259 261 259 259 259 260 262 264 264 263 263 263 263 262 263 263 260 261 263 266 270 273 274 276 275 276 277 275 273 272 272 271 270 270 271 271 271 272 272 271 271 271
263 262 261 261 260 260 260 260 262 264 263 262 262 262 261 261 262 262 261 261 263 265 269 272 274 274 273 272 274 273 272 272 271 272 270 268 269 270 270 269 269 269 271 270
264 264 262 263 262 261 262 262 263 265 265 264 262 262 260 260 262 261 260 261 262 264 267 270 272 272 272 272 272 272 270 269 270 271 270 268 269 268 268 268 268 269 269 270
264 263 263 263 264 264 264 265 265 265 265 265 263 262 263 262 262 263 263 262 263 265 266 267 269 272 273 272 272 273 271 268 268 269 269 271 270 269 267 267 267 267 267 268
263 263 263 262 262 264 266 266 266 266 266 266 264 262 262 262 263 263 263 263 264 265 268 269 270 271 272 272 274 274 271 268 268 269 269 271 271 270 267 267 267 266 267 267
266 264 263 262 262 263 265 267 266 267 266 265 265 263 262 262 262 263 264 265 265 266 268 268 268 271 272 273 275 275 272 271 269 269 270 270 269 268 267 266 266 266 267 268
267 264 262 262 264 265 265 265 267 267 266 264 264 263 262 261 261 262 263 266 266 265 264 264 267 270 272 274 274 275 275 275 273 272 271 269 268 266 266 266 267 266 266 266
266 265 263 262 264 265 266 266 266 266 266 264 264 264 265 263 261 260 262 264 264 264 264 266 267 270 273 273 274 275 275 275 276 275 272 271 271 270 269 267 267 266 266 265
265 265 265 265 265 265 265 266 266 267 266 265 265 266 266 264 262 262 263 264 265 265 266 268 270 272 273 274 276 275 274 277 277 276 275 273 272 271 271 271 270 269 267 267
266 265 264 265 264 264 265 266 266 266 264 264 266 267 267 266 264 265 267 267 267 268 269 271 273 274 275 275 276 277 278 279 278 276 276 275 272 273 273 271 271 270 269 268
265 263 263 265 264 263 265 266 266 265 264 264 265 267 267 268 268 269 269 269 269 270 271 273 274 274 275 276 277 277 277 278 278 277 276 276 273 273 273 271 269 268 268 269
264 264 265 266 266 267 268 267 266 265 264 264 266 267 267 268 269 269 269 270 271 272 273 273 274 274 275 275 276 277 277 278 277 277 276 276 274 273 272 271 269 268 267 267
264 265 265 267 267 268 269 269 268 266 265 265 267 268 266 266 267 268 270 272 274 273 272 273 275 275 275 275 276 276 276 276 276 276 276 275 274 272 272 271 271 269 268 267
262 264 266 267 269 269 269 270 270 267 267 268 269 270 268 267 267 267 269 271 273 273 273 274 275 276 277 277 276 276 275 276 276 275 275 274 274 273 273 271 270 269 269 269
265 268 270 271 270 270 269 270 270 268 268 270 271 272 271 271 269 268 268 270 271 272 275 276 277 278 277 277 277 276 277 277 277 276 275 274 273 273 273 274 272 271 271 271
269 270 268 269 270 270 268 268 268 269 271 272 271 271 272 272 272 271 271 271 271 273 275 276 277 277 277 278 277 276 278 279 278 277 276 274 272 272 273 273 272 271 271 271
266 266 264 266 269 271 270 269 268 269 271 271 273 274 273 273 274 273 272 273 275 274 273 274 275 276 277 277 276 276 277 277 277 278 277 275 273 272 273 273 273 272 273 273
270 270 268 267 268 269 270 269 267 268 269 271 273 274 275 275 276 275 276 277 277 276 275 275 276 276 277 276 274 274 275 275 276 277 278 276 273 272 273 274 275 275 276 275
272 272 271 270 270 269 268 268 268 269 269 270 274 276 276 277 278 278 280 280 279 278 278 277 277 277 276 275 273 273 274 274 275 275 276 275 273 272 273 274 275 276 277 278
278 276 276 276 274 271 270 271 271 272 272 273 275 275 275 277 280 281 281 282 281 280 278 278 277 276 276 276 275 275 275 275 274 273 273 274 273 274 275 275 275 276 277 279
281 281 282 281 278 275 274 273 273 273 273 274 275 275 276 279 280 281 283 283 282 282 280 279 277 277 277 277 276 276 276 276 274 271 271 273 274 274 274 275 276 276 277 278
282 283 284 282 280 278 275 273 274 275 276 277 278 279 279 279 280 281 283 284 285 285 281 278 277 277 278 278 277 276 275 274 273 271 270 272 273 274 274 274 274 276 277 277
285 286 287 285 282 278 276 275 276 278 279 280 281 282 281 281 280 281 283 284 285 285 282 278 278 279 279 279 279 278 276 274 273 271 270 271 272 273 273 274 276 278 278 277
287 288 289 287 283 282 279 280 281 280 280 280 281 280 280 280 280 282 283 284 286 286 283 280 280 281 280 279 280 279 278 275 274 274 274 273 274 275 275 275 277 279 280 280
Height
5782 5783 5784 5785 5787 5788 5789 5790 5791 5793 5795 5797 5797 5799 5800 5800 5801 5802 5803 5803 5802 5802 5803 5804 5805 5805 5805 5805 5805 5804 5804 5804 5804 5804 5804 5804 5803 5804 5804 5804 5804 5803 5803 5803
5774 5776 5777 5778 5779 5781 5782 5783 5784 5786 5788 5790 5790 5792 5792 5793 5794 5795 5796 5796 5796 5796 5797 5798 5798 5798 5798 5798 5797 5797 5797 5797 5797 5797 5797 5797 5797 5797 5797 5797 5797 5797 5797 5797
5767 5768 5768 5770 5772 5773 5774 5775 5777 5778 5781 5782 5783 5784 5785 5786 5787 5788 5789 5789 5790 5790 5790 5790 5790 5790 5790 5790 5789 5789 5789 5789 5790 5790 5790 5790 5790 5790 5789 5789 5789 5789 5790 5790
5758 5760 5760 5765 5764 5765 5767 5768 5769 5771 5772 5774 5775 5776 5778 5779 5780 5781 5781 5782 5782 5782 5782 5783 5782 5782 5783 5782 5782 5781 5781 5782 5782 5782 5783 5782 5782 5782 5782 5782 5781 5782 5782 5783
5750 5750 5751 5755 5756 5757 5758 5760 5762 5763 5764 5766 5767 5768 5770 5770 5772 5773 5773 5774 5774 5774 5775 5775 5775 5775 5775 5774 5774 5774 5774 5774 5774 5774 5774 5774 5774 5774 5774 5774 5774 5774 5775 5775
5742 5742 5744 5748 5748 5749 5751 5751 5754 5755 5756 5757 5758 5760 5762 5762 5763 5764 5764 5765 5766 5766 5766 5766 5767 5767 5767 5767 5766 5766 5765 5765 5765 5765 5765 5765 5765 5765 5765 5766 5766 5766 5766 5766
5734 5734 5736 5739 5740 5741 5743 5745 5746 5746 5747 5748 5749 5751 5753 5753 5754 5755 5755 5756 5757 5757 5757 5758 5758 5758 5758 5758 5757 5756 5756 5756 5756 5756 5756 5756 5755 5755 5756 5756 5757 5757 5758 5758
5727 5727 5731 5732 5732 5734 5735 5736 5737 5737 5738 5739 5740 5741 5743 5744 5745 5745 5746 5747 5748 5748 5748 5748 5748 5749 5749 5748 5748 5747 5747 5747 5747 5748 5747 5746 5746 5746 5747 5747 5748 5748 5749 5749
5720 5722 5723 5723 5724 5725 5726 5728 5729 5729 5730 5731 5731 5732 5733 5735 5736 5736 5737 5738 5738 5739 5739 5739 5739 5739 5739 5740 5739 5738 5738 5738 5738 5738 5738 5737 5737 5737 5738 5738 5739 5739 5740 5740
5712 5713 5714 5715 5716 5717 5718 5719 5720 5720 5721 5722 5723 5724 5725 5726 5727 5727 5728 5729 5729 5730 5730 5730 5730 5730 5730 5730 5730 5730 5730 5729 5729 5728 5728 5728 5728 5728 5729 5729 5730 5730 5730 5731
5704 5705 5706 5708 5709 5709 5710 5711 5712 5712 5713 5713 5714 5715 5716 5717 5718 5718 5719 5720 5720 5721 5721 5721 5721 5721 5721 5721 5721 5721 5720 5720 5719 5719 5718 5718 5718 5719 5719 5720 5720 5720 5721 5721
5697 5698 5699 5701 5701 5702 5703 5703 5704 5704 5704 5705 5706 5707 5707 5708 5709 5710 5710 5711 5711 5711 5712 5712 5713 5713 5712 5712 5712 5711 5711 5710 5710 5709 5709 5709 5709 5709 5709 5709 5710 5710 5711 5711
5690 5690 5692 5693 5694 5694 5695 5695 5696 5696 5696 5697 5698 5698 5699 5700 5700 5701 5702 5702 5702 5703 5703 5703 5703 5704 5703 5703 5703 5702 5702 5701 5701 5700 5699 5698 5699 5699 5700 5700 5700 5700 5700 5700
5682 5683 5684 5685 5686 5686 5687 5687 5688 5688 5689 5689 5690 5690 5691 5691 5692 5693 5693 5694 5694 5694 5694 5694 5695 5695 5694 5694 5693 5693 5693 5692 5692 5691 5690 5690 5690 5690 5690 5690 5690 5690 5690 5690
5675 5676 5677 5677 5678 5678 5679 5679 5680 5680 5681 5681 5682 5682 5683 5683 5684 5684 5684 5685 5685 5685 5685 5685 5685 5685 5685 5684 5684 5683 5683 5683 5682 5681 5681 5680 5680 5680 5680 5680 5680 5681 5681 5681
5669 5669 5670 5670 5670 5671 5671 5671 5672 5672 5673 5673 5673 5674 5674 5675 5675 5676 5676 5676 5676 5676 5676 5676 5676 5676 5675 5675 5674 5674 5674 5673 5672 5671 5671 5671 5670 5670 5671 5671 5671 5671 5671 5672
5662 5663 5663 5663 5663 5663 5664 5664 5664 5664 5665 5665 5666 5666 5667 5667 5667 5668 5668 5668 5668 5668 5667 5667 5667 5666 5666 5665 5664 5664 5663 5663 5663 5662 5662 5662 5661 5662 5662 5662 5662 5662 5662 5662
5656 5656 5656 5657 5657 5656 5656 5657 5657 5657 5658 5658 5658 5659 5659 5659 5659 5659 5659 5659 5659 5659 5659 5658 5658 5657 5656 5655 5655 5654 5654 5654 5653 5653 5652 5652 5652 5653 5653 5653 5653 5653 5653 5653
5650 5650 5650 5650 5650 5650 5650 5650 5650 5651 5651 5651 5651 5651 5651 5651 5651 5651 5651 5651 5651 5651 5650 5649 5649 5648 5647 5647 5646 5646 5645 5645 5645 5644 5644 5644 5643 5643 5643 5643 5643 5643 5643 5643
5645 5644 5644 5644 5644 5644 5643 5643 5644 5644 5644 5644 5644 5644 5644 5643 5643 5643 5643 5642 5641 5641 5641 5641 5640 5640 5639 5638 5638 5637 5637 5636 5636 5636 5635 5635 5635 5634 5634 5635 5635 5634 5634 5633
5639 5639 5639 5638 5638 5638 5638 5637 5637 5638 5638 5637 5637 5637 5636 5636 5636 5635 5635 5634 5633 5632 5632 5632 5631 5631 5630 5630 5630 5629 5629 5628 5627 5627 5627 5626 5626 5626 5626 5626 5625 5625 5625 5624
5634 5633 5633 5632 5632 5632 5631 5631 5631 5631 5631 5630 5630 5629 5629 5629 5628 5627 5627 5626 5625 5624 5624 5623 5623 5622 5622 5621 5621 5621 5620 5619 5619 5618 5618 5617 5617 5617 5617 5617 5616 5616 5615 5614
5628 5627 5627 5626 5626 5625 5625 5624 5624 5624 5623 5623 5622 5622 5621 5621 5620 5619 5619 5618 5617 5616 5615 5615 5614 5614 5613 5613 5612 5612 5611 5611 5610 5610 5609 5609 5608 5608 5608 5608 5607 5607 5606 5605
5622 5622 5621 5620 5619 5618 5618 5617 5617 5616 5615 5615 5614 5614 5613 5613 5612 5611 5611 5609 5608 5607 5607 5606 5606 5605 5604 5604 5603 5603 5602 5602 5601 5601 5601 5600 5600 5600 5599 5599 5599 5598 5597 5596
5617 5616 5615 5613 5612 5611 5611 5610 5609 5609 5608 5607 5607 5606 5605 5605 5604 5604 5603 5602 5600 5599 5598 5598 5597 5596 5596 5595 5594 5594 5593 5593 5592 5592 5592 5592 5592 5592 5591 5591 5590 5590 5589 5588
5612 5610 5609 5607 5606 5605 5604 5603 5603 5602 5601 5600 5599 5599 5598 5597 5597 5596 5595 5594 5593 5592 5591 5590 5589 5589 5588 5587 5587 5586 5585 5585 5584 5584 5584 5584 5584 5584 5583 5583 5582 5581 5580 5579
5606 5605 5603 5602 5600 5599 5598 5598 5597 5596 5594 5594 5593 5592 5591 5591 5590 5589 5588 5587 5586 5585 5584 5582 5582 5581 5581 5580 5579 5578 5577 5577 5577 5576 5576 5576 5576 5576 5575 5574 5574 5573 5572 5571